• Join FlightAware (Why Join?)
  • Login
  • US Flag 
04:26AM EST


 

Airport Tracker/Info


-or-


 

Live Flight TrackerFlight Track Log ✈ CTL13 ✈ 03-May-2013 ✈ KEYE - KMDW

Flight Track Log - Related Links

Times and Time Zones

All times are in EDT time to prevent confusion due to time zone crossing. See the CTL13 flight status page for this flight to view local times or setup timezone preferences in your user account.

Time Position Orientation Groundspeed Altitude Reporting Facility
EDT Latitude Longitude Course Direction KTS MPH feet Rate Location/Type
09:13PM 39.9000 -86.2667 17° North 183 211 2,300  Level Indianapolis TRACON
09:14PM 39.9500 -86.3000 333° Northwest 195 224 2,700 360 Climbing Indianapolis TRACON
09:15PM 39.9781 -86.3383 314° West 191 220 3,000 360 Climbing Chicago Center
09:16PM 40.0150 -86.3861 315° West 191 220 3,400 300 Climbing Indianapolis Center
09:17PM 40.0525 -86.4361 314° West 192 221 3,600 240 Climbing Indianapolis Center
09:18PM 39.8351 -86.2927 17° North  Level FlightAware Approximate
09:18PM 40.0919 -86.4836 317° Northwest 193 222 3,900  Level Indianapolis Center
09:19PM 40.1442 -86.5403 320° Northwest 198 228 4,000  Climbing Chicago Center
09:20PM 40.1878 -86.5897 319° Northwest 203 234 4,000  Level Chicago Center
09:20PM 40.2036 -86.6147 310° West 203 234 4,000  Level Chicago Center
09:21PM 40.2281 -86.6389 323° Northwest 202 232 4,000  Level Chicago Center
09:21PM 40.2417 -86.6633 306° West 201 231 4,000  Level Chicago Center
09:22PM 40.2672 -86.6894 322° Northwest 200 230 4,000  Level Chicago Center
09:22PM 40.2836 -86.7150 310° West 200 230 4,000  Level Chicago Center
09:23PM 40.3133 -86.7525 316° Northwest 200 230 4,000  Level Chicago Center
09:23PM 40.3214 -86.7664 307° West 200 230 4,000  Level Chicago Center
09:24PM 40.3522 -86.8033 318° Northwest 198 228 4,000  Level Chicago Center
09:24PM 40.3611 -86.8208 304° West 197 227 4,000  Level Chicago Center
09:25PM 40.3908 -86.8536 320° Northwest 198 228 4,000  Level Chicago Center
09:26PM 40.4306 -86.9022 317° Northwest 197 227 4,000  Level Chicago Center
09:27PM 40.4694 -86.9539 315° West 198 228 4,000  Level Chicago Center
09:28PM 40.5094 -87.0036 317° Northwest 199 229 4,000  Level Chicago Center
09:29PM 40.5572 -87.0650 316° Northwest 200 230 4,000  Level Chicago Center
09:30PM 40.6078 -87.0939 337° Northwest 197 227 4,000  Level Chicago Center
09:31PM 40.6561 -87.1181 339° North 198 228 4,000  Level Chicago Center
09:32PM 40.7069 -87.1458 338° Northwest 198 228 4,000  Level Chicago Center
09:33PM 40.7664 -87.1797 337° Northwest 197 227 4,000  Level Chicago Center
09:34PM 40.8172 -87.2061 339° North 196 226 4,000  Level Chicago Center
09:35PM 40.8678 -87.2342 337° Northwest 197 227 4,000  Level Chicago Center
09:36PM 40.9175 -87.2617 337° Northwest 197 227 4,000  Level Chicago Center
09:37PM 40.9686 -87.2894 338° Northwest 198 228 4,000  Level Chicago Center
09:38PM 41.0203 -87.3172 338° Northwest 199 229 4,100  Climbing Chicago Center
09:39PM 41.0808 -87.3492 338° Northwest 198 228 4,100  Level Chicago Center
09:41PM 41.1325 -87.3750 339° North 198 228 4,100  Level Chicago Center
09:42PM 41.1822 -87.4089 333° Northwest 201 231 4,100  Level Chicago Center
09:43PM 41.2228 -87.4586 317° Northwest 200 230 4,100  Level Chicago Center
09:44PM 41.2619 -87.5119 314° West 201 231 4,100  Level Chicago Center
09:45PM 41.3033 -87.5628 317° Northwest 203 234 4,100  Level Chicago Center
09:46PM 41.3511 -87.6214 317° Northwest 200 230 4,100  Level Chicago Center
09:47PM 41.3908 -87.6692 318° Northwest 197 227 4,100  Level Chicago Center
09:48PM 41.4311 -87.7175 318° Northwest 196 226 4,100 -60 Level Chicago Center
09:49PM 41.5000 -87.8000 318° Northwest 203 234 4,000 -60 Descending Chicago TRACON
09:50PM 41.5333 -87.8667 304° West 205 236 4,000 60 Level Chicago TRACON
09:51PM 41.5442 -87.8781 322° Northwest 201 231 4,100 60 Climbing Chicago Center
09:52PM 41.5817 -87.9514 304° West 202 232 4,100  Level Chicago Center
09:53PM 41.6139 -87.9806 326° Northwest 201 231 4,100 -120 Level Chicago Center
09:54PM 41.6414 -87.9356 51° Northeast 174 200 3,900 -540 Descending Chicago Center
09:55PM 41.6706 -87.8942 47° Northeast 161 185 3,000 -1,080 Descending Chicago Center
09:55PM 41.6833 -87.8667 58° Northeast 145 167 2,400 -420 Descending Chicago TRACON
09:56PM 41.7167 -87.8333 37° Northeast 137 158 2,400 -420 Level Chicago TRACON
09:57PM 41.7333 -87.8000 56° Northeast 126 145 1,600 -660 Descending Chicago TRACON
09:58PM 41.7667 -87.7833 20° North 100 115 1,100 -540 Descending Chicago TRACON